Year,Month,Day,Hour,Minute,Value (Times are PST for temperature in C)
2013,01,23,00,00,1.10
2013,01,23,00,01,1.10
2013,01,23,00,02,1.10
2013,01,23,00,03,1.10
2013,01,23,00,04,1.10
2013,01,23,00,05,1.10
2013,01,23,00,06,1.10
2013,01,23,00,07,1.10
2013,01,23,00,08,1.10
2013,01,23,00,09,1.10
2013,01,23,00,10,1.10
2013,01,23,00,11,1.10
2013,01,23,00,12,1.10
2013,01,23,00,13,1.10
2013,01,23,00,14,1.10
2013,01,23,00,15,1.10
2013,01,23,00,16,1.10
2013,01,23,00,17,1.10
2013,01,23,00,18,1.10
2013,01,23,00,19,1.10
2013,01,23,00,20,1.10
2013,01,23,00,21,1.10
2013,01,23,00,22,1.10
2013,01,23,00,23,1.10
2013,01,23,00,24,1.10
2013,01,23,00,25,1.10
2013,01,23,00,26,1.10
2013,01,23,00,27,1.20
2013,01,23,00,28,1.20
2013,01,23,00,29,1.20
2013,01,23,00,30,1.20
2013,01,23,00,31,1.20
2013,01,23,00,32,1.20
2013,01,23,00,33,1.20
2013,01,23,00,34,1.20
2013,01,23,00,35,1.20
2013,01,23,00,36,1.20
2013,01,23,00,37,1.20
2013,01,23,00,38,1.20
2013,01,23,00,39,1.20
2013,01,23,00,40,1.20
2013,01,23,00,41,1.20
2013,01,23,00,42,1.20
2013,01,23,00,43,1.20
2013,01,23,00,44,1.20
2013,01,23,00,45,1.20
2013,01,23,00,46,1.20
2013,01,23,00,47,1.20
2013,01,23,00,48,1.20
2013,01,23,00,49,1.20
2013,01,23,00,50,1.20
2013,01,23,00,51,1.20
2013,01,23,00,52,1.20
2013,01,23,00,53,1.20
2013,01,23,00,54,1.30
2013,01,23,00,55,1.30
2013,01,23,00,56,1.30
2013,01,23,00,57,1.30
2013,01,23,00,58,1.30
2013,01,23,00,59,1.30
2013,01,23,01,00,1.30
2013,01,23,01,01,1.30
2013,01,23,01,02,1.30
2013,01,23,01,03,1.30
2013,01,23,01,04,1.30
2013,01,23,01,05,1.30
2013,01,23,01,06,1.30
2013,01,23,01,07,1.30
2013,01,23,01,08,1.30
2013,01,23,01,09,1.30
2013,01,23,01,10,1.30
2013,01,23,01,11,1.30
2013,01,23,01,12,1.30
2013,01,23,01,13,1.30
2013,01,23,01,14,1.30
2013,01,23,01,15,1.30
2013,01,23,01,16,1.30
2013,01,23,01,17,1.30
2013,01,23,01,18,1.30
2013,01,23,01,19,1.30
2013,01,23,01,20,1.30
2013,01,23,01,21,1.30
2013,01,23,01,22,1.30
2013,01,23,01,23,1.30
2013,01,23,01,24,1.30
2013,01,23,01,25,1.30
2013,01,23,01,26,1.30
2013,01,23,01,27,1.30
2013,01,23,01,28,1.30
2013,01,23,01,29,1.30
2013,01,23,01,30,1.30
2013,01,23,01,31,1.30
2013,01,23,01,32,1.30
2013,01,23,01,33,1.30
2013,01,23,01,34,1.30
2013,01,23,01,35,1.30
2013,01,23,01,36,1.30
2013,01,23,01,37,1.30
2013,01,23,01,38,1.30
2013,01,23,01,39,1.30
2013,01,23,01,40,1.30
2013,01,23,01,41,1.30
2013,01,23,01,42,1.30
2013,01,23,01,43,1.30
2013,01,23,01,44,1.30
2013,01,23,01,45,1.30
2013,01,23,01,46,1.30
2013,01,23,01,47,1.30
2013,01,23,01,48,1.30
2013,01,23,01,49,1.30
2013,01,23,01,50,1.30
2013,01,23,01,51,1.30
2013,01,23,01,52,1.30
2013,01,23,01,53,1.30
2013,01,23,01,54,1.30
2013,01,23,01,55,1.30
2013,01,23,01,56,1.30
2013,01,23,01,57,1.30
2013,01,23,01,58,1.30
2013,01,23,01,59,1.30
2013,01,23,02,00,1.30
2013,01,23,02,01,1.30
2013,01,23,02,02,1.30
2013,01,23,02,03,1.30
2013,01,23,02,04,1.30
2013,01,23,02,05,1.30
2013,01,23,02,06,1.30
2013,01,23,02,07,1.30
2013,01,23,02,08,1.30
2013,01,23,02,09,1.30
2013,01,23,02,10,1.30
2013,01,23,02,11,1.30
2013,01,23,02,12,1.30
2013,01,23,02,13,1.30
2013,01,23,02,14,1.30
2013,01,23,02,15,1.30
2013,01,23,02,16,1.30
2013,01,23,02,17,1.30
2013,01,23,02,18,1.30
2013,01,23,02,19,1.30
2013,01,23,02,20,1.30
2013,01,23,02,21,1.30
2013,01,23,02,22,1.30
2013,01,23,02,23,1.30
2013,01,23,02,24,1.30
2013,01,23,02,25,1.30
2013,01,23,02,26,1.30
2013,01,23,02,27,1.30
2013,01,23,02,28,1.30
2013,01,23,02,29,1.30
2013,01,23,02,30,1.30
2013,01,23,02,31,1.30
2013,01,23,02,32,1.30
2013,01,23,02,33,1.30
2013,01,23,02,34,1.30
2013,01,23,02,35,1.30
2013,01,23,02,36,1.30
2013,01,23,02,37,1.30
2013,01,23,02,38,1.30
2013,01,23,02,39,1.30
2013,01,23,02,40,1.30
2013,01,23,02,41,1.30
2013,01,23,02,42,1.30
2013,01,23,02,43,1.30
2013,01,23,02,44,1.30
2013,01,23,02,45,1.30
2013,01,23,02,46,1.30
2013,01,23,02,47,1.30
2013,01,23,02,48,1.30
2013,01,23,02,49,1.30
2013,01,23,02,50,1.30
2013,01,23,02,51,1.30
2013,01,23,02,52,1.30
2013,01,23,02,53,1.30
2013,01,23,02,54,1.30
2013,01,23,02,55,1.30
2013,01,23,02,56,1.30
2013,01,23,02,57,1.30
2013,01,23,02,58,1.30
2013,01,23,02,59,1.30
2013,01,23,03,00,1.30
2013,01,23,03,01,1.30
2013,01,23,03,02,1.30
2013,01,23,03,03,1.30
2013,01,23,03,04,1.30
2013,01,23,03,05,1.30
2013,01,23,03,06,1.30
2013,01,23,03,07,1.30
2013,01,23,03,08,1.30
2013,01,23,03,09,1.30
2013,01,23,03,10,1.30
2013,01,23,03,11,1.30
2013,01,23,03,12,1.30
2013,01,23,03,13,1.30
2013,01,23,03,14,1.30
2013,01,23,03,15,1.30
2013,01,23,03,16,1.30
2013,01,23,03,17,1.30
2013,01,23,03,18,1.30
2013,01,23,03,19,1.30
2013,01,23,03,20,1.30
2013,01,23,03,21,1.30
2013,01,23,03,22,1.30
2013,01,23,03,23,1.30
2013,01,23,03,24,1.30
2013,01,23,03,25,1.30
2013,01,23,03,26,1.30
2013,01,23,03,27,1.30
2013,01,23,03,28,1.30
2013,01,23,03,29,1.30
2013,01,23,03,30,1.30
2013,01,23,03,31,1.30
2013,01,23,03,32,1.30
2013,01,23,03,33,1.30
2013,01,23,03,34,1.30
2013,01,23,03,35,1.30
2013,01,23,03,36,1.30
2013,01,23,03,37,1.30
2013,01,23,03,38,1.30
2013,01,23,03,39,1.30
2013,01,23,03,40,1.30
2013,01,23,03,41,1.30
2013,01,23,03,42,1.30
2013,01,23,03,43,1.30
2013,01,23,03,44,1.40
2013,01,23,03,45,1.30
2013,01,23,03,46,1.40
2013,01,23,03,47,1.40
2013,01,23,03,48,1.40
2013,01,23,03,49,1.40
2013,01,23,03,50,1.40
2013,01,23,03,51,1.40
2013,01,23,03,52,1.40
2013,01,23,03,53,1.30
2013,01,23,03,54,1.30
2013,01,23,03,55,1.40
2013,01,23,03,56,1.30
2013,01,23,03,57,1.30
2013,01,23,03,58,1.30
2013,01,23,03,59,1.30
2013,01,23,04,00,1.30
2013,01,23,04,01,1.30
2013,01,23,04,02,1.30
2013,01,23,04,03,1.30
2013,01,23,04,04,1.30
2013,01,23,04,05,1.30
2013,01,23,04,06,1.30
2013,01,23,04,07,1.30
2013,01,23,04,08,1.30
2013,01,23,04,09,1.30
2013,01,23,04,10,1.30
2013,01,23,04,11,1.30
2013,01,23,04,12,1.30
2013,01,23,04,13,1.30
2013,01,23,04,14,1.30
2013,01,23,04,15,1.30
2013,01,23,04,16,1.30
2013,01,23,04,17,1.30
2013,01,23,04,18,1.30
2013,01,23,04,19,1.30
2013,01,23,04,20,1.30
2013,01,23,04,21,1.30
2013,01,23,04,22,1.30
2013,01,23,04,23,1.30
2013,01,23,04,24,1.30
2013,01,23,04,25,1.30
2013,01,23,04,26,1.30
2013,01,23,04,27,1.30
2013,01,23,04,28,1.30
2013,01,23,04,29,1.30
2013,01,23,04,30,1.30
2013,01,23,04,31,1.30
2013,01,23,04,32,1.30
2013,01,23,04,33,1.30
2013,01,23,04,34,1.30
2013,01,23,04,35,1.30
2013,01,23,04,36,1.30
2013,01,23,04,37,1.30
2013,01,23,04,38,1.30
2013,01,23,04,39,1.30
2013,01,23,04,40,1.30
2013,01,23,04,41,1.30
2013,01,23,04,42,1.30
2013,01,23,04,43,1.30
2013,01,23,04,44,1.30
2013,01,23,04,45,1.30
2013,01,23,04,46,1.30
2013,01,23,04,47,1.30
2013,01,23,04,48,1.30
2013,01,23,04,49,1.30
2013,01,23,04,50,1.30
2013,01,23,04,51,1.30
2013,01,23,04,52,1.30
2013,01,23,04,53,1.30
2013,01,23,04,54,1.30
2013,01,23,04,55,1.30
2013,01,23,04,56,1.30
2013,01,23,04,57,1.30
2013,01,23,04,58,1.30
2013,01,23,04,59,1.30
2013,01,23,05,00,1.30
2013,01,23,05,01,1.30
2013,01,23,05,02,1.30
2013,01,23,05,03,1.30
2013,01,23,05,04,1.30
2013,01,23,05,05,1.30
2013,01,23,05,06,1.30
2013,01,23,05,07,1.30
2013,01,23,05,08,1.30
2013,01,23,05,09,1.30
2013,01,23,05,10,1.30
2013,01,23,05,11,1.30
2013,01,23,05,12,1.30
2013,01,23,05,13,1.30
2013,01,23,05,14,1.30
2013,01,23,05,15,1.30
2013,01,23,05,16,1.30
2013,01,23,05,17,1.30
2013,01,23,05,18,1.30
2013,01,23,05,19,1.30
2013,01,23,05,20,1.30
2013,01,23,05,21,1.30
2013,01,23,05,22,1.30
2013,01,23,05,23,1.30
2013,01,23,05,24,1.30
2013,01,23,05,25,1.30
2013,01,23,05,26,1.30
2013,01,23,05,27,1.30
2013,01,23,05,28,1.30
2013,01,23,05,29,1.30
2013,01,23,05,30,1.30
2013,01,23,05,31,1.30
2013,01,23,05,32,1.30
2013,01,23,05,33,1.30
2013,01,23,05,34,1.30
2013,01,23,05,35,1.30
2013,01,23,05,36,1.30
2013,01,23,05,37,1.30
2013,01,23,05,38,1.30
2013,01,23,05,39,1.30
2013,01,23,05,40,1.30
2013,01,23,05,41,1.30
2013,01,23,05,42,1.30
2013,01,23,05,43,1.30
2013,01,23,05,44,1.30
2013,01,23,05,45,1.30
2013,01,23,05,46,1.30
2013,01,23,05,47,1.30
2013,01,23,05,48,1.30
2013,01,23,05,49,1.30
2013,01,23,05,50,1.30
2013,01,23,05,51,1.30
2013,01,23,05,52,1.30
2013,01,23,05,53,1.30
2013,01,23,05,54,1.30
2013,01,23,05,55,1.30
2013,01,23,05,56,1.30
2013,01,23,05,57,1.30
2013,01,23,05,58,1.30
2013,01,23,05,59,1.30
2013,01,23,06,00,1.30
2013,01,23,06,01,1.30
2013,01,23,06,02,1.30
2013,01,23,06,03,1.30
2013,01,23,06,04,1.30
2013,01,23,06,05,1.30
2013,01,23,06,06,1.30
2013,01,23,06,07,1.30
2013,01,23,06,08,1.30
2013,01,23,06,09,1.30
2013,01,23,06,10,1.30
2013,01,23,06,11,1.30
2013,01,23,06,12,1.30
2013,01,23,06,13,1.30
2013,01,23,06,14,1.30
2013,01,23,06,15,1.30
2013,01,23,06,16,1.30
2013,01,23,06,17,1.30
2013,01,23,06,18,1.30
2013,01,23,06,19,1.30
2013,01,23,06,20,1.30
2013,01,23,06,21,1.30
2013,01,23,06,22,1.30
2013,01,23,06,23,1.30
2013,01,23,06,24,1.30
2013,01,23,06,25,1.30
2013,01,23,06,26,1.30
2013,01,23,06,27,1.30
2013,01,23,06,28,1.30
2013,01,23,06,29,1.30
2013,01,23,06,30,1.30
2013,01,23,06,31,1.30
2013,01,23,06,32,1.30
2013,01,23,06,33,1.30
2013,01,23,09,05,1.60
2013,01,23,09,06,1.60
2013,01,23,09,07,1.60
2013,01,23,09,08,1.70
2013,01,23,09,09,1.70
2013,01,23,09,10,1.70
2013,01,23,09,11,1.70
2013,01,23,09,12,1.70
2013,01,23,09,13,1.70
2013,01,23,09,14,1.70
2013,01,23,09,15,1.70
2013,01,23,09,16,1.70
2013,01,23,09,17,1.70
2013,01,23,09,18,1.70
2013,01,23,09,19,1.70
2013,01,23,09,20,1.70
2013,01,23,09,21,1.70
2013,01,23,09,22,1.70
2013,01,23,09,23,1.70
2013,01,23,09,24,1.70
2013,01,23,09,25,1.70
2013,01,23,09,26,1.70
2013,01,23,09,27,1.80
2013,01,23,09,28,1.80
2013,01,23,09,29,1.80
2013,01,23,09,30,1.80
2013,01,23,09,31,1.80
2013,01,23,09,32,1.80
2013,01,23,09,33,1.80
2013,01,23,09,34,1.80
2013,01,23,09,35,1.80
2013,01,23,09,36,1.80
2013,01,23,09,37,1.80
2013,01,23,09,38,1.80
2013,01,23,09,39,1.80
2013,01,23,09,40,1.80
2013,01,23,09,41,1.90
2013,01,23,09,42,1.90
2013,01,23,09,43,1.90
2013,01,23,09,44,1.90
2013,01,23,09,45,1.90
2013,01,23,09,46,1.90
2013,01,23,09,47,1.90
2013,01,23,09,48,1.90
2013,01,23,09,49,1.90
2013,01,23,09,50,1.90
2013,01,23,09,51,1.90
2013,01,23,09,52,1.90
2013,01,23,09,53,1.90
2013,01,23,09,54,1.90
2013,01,23,09,55,1.90
2013,01,23,09,56,1.90
2013,01,23,09,57,1.90
2013,01,23,09,58,1.90
2013,01,23,09,59,1.90
2013,01,23,10,00,1.90
2013,01,23,10,01,1.90
2013,01,23,10,02,1.90
2013,01,23,10,03,1.90
2013,01,23,10,04,1.90
2013,01,23,10,05,1.90
2013,01,23,10,06,1.90
2013,01,23,10,07,1.90
2013,01,23,10,08,1.90
2013,01,23,10,09,1.90
2013,01,23,10,10,1.90
2013,01,23,10,11,1.90
2013,01,23,10,12,1.90
2013,01,23,10,13,2.00
2013,01,23,10,14,2.00
2013,01,23,10,15,2.00
2013,01,23,10,16,2.00
2013,01,23,10,17,2.00
2013,01,23,10,18,2.00
2013,01,23,10,19,2.00
2013,01,23,10,20,2.00
2013,01,23,10,21,2.00
2013,01,23,10,22,2.00
2013,01,23,10,23,2.10
2013,01,23,10,24,2.10
2013,01,23,10,25,2.10
2013,01,23,10,26,2.10
2013,01,23,10,27,2.10
2013,01,23,10,28,2.10
2013,01,23,10,29,2.10
2013,01,23,10,30,2.10
2013,01,23,10,31,2.10
2013,01,23,10,32,2.10
2013,01,23,10,33,2.10
2013,01,23,10,34,2.10
2013,01,23,10,35,2.20
2013,01,23,10,36,2.20
2013,01,23,10,37,2.20
2013,01,23,10,38,2.20
2013,01,23,10,39,2.20
2013,01,23,10,40,2.20
2013,01,23,10,41,2.20
2013,01,23,10,42,2.20
2013,01,23,10,43,2.20
2013,01,23,10,44,2.20
2013,01,23,10,45,2.20
2013,01,23,10,46,2.20
2013,01,23,10,47,2.20
2013,01,23,10,48,2.20
2013,01,23,10,49,2.20
2013,01,23,10,50,2.30
2013,01,23,10,51,2.30
2013,01,23,10,52,2.30
2013,01,23,10,53,2.30
2013,01,23,10,54,2.30
2013,01,23,10,55,2.30
2013,01,23,10,56,2.30
2013,01,23,10,57,2.30
2013,01,23,10,58,2.30
2013,01,23,10,59,2.40
2013,01,23,11,00,2.40
2013,01,23,11,01,2.40
2013,01,23,11,02,2.40
2013,01,23,11,03,2.50
2013,01,23,11,04,2.50
2013,01,23,11,05,2.50
2013,01,23,11,06,2.50
2013,01,23,11,07,2.60
2013,01,23,11,08,2.60
2013,01,23,11,09,2.50
2013,01,23,11,10,2.60
2013,01,23,11,11,2.60
2013,01,23,11,12,2.60
2013,01,23,11,13,2.60
2013,01,23,11,14,2.60
2013,01,23,11,15,2.60
2013,01,23,11,16,2.60
2013,01,23,11,17,2.60
2013,01,23,11,18,2.60
2013,01,23,11,19,2.60
2013,01,23,11,20,2.60
2013,01,23,11,21,2.60
2013,01,23,11,22,2.60
2013,01,23,11,23,2.60
2013,01,23,11,24,2.70
2013,01,23,11,25,2.70
2013,01,23,11,26,2.70
2013,01,23,11,27,2.70
2013,01,23,11,28,2.70
2013,01,23,11,29,2.70
2013,01,23,11,30,2.70
2013,01,23,11,31,2.70
2013,01,23,11,32,2.70
2013,01,23,11,33,2.70
2013,01,23,11,34,2.70
2013,01,23,11,35,2.70
2013,01,23,11,36,2.80
2013,01,23,11,37,2.80
2013,01,23,11,38,2.80
2013,01,23,11,39,2.80
2013,01,23,11,40,2.80
2013,01,23,11,41,2.80
2013,01,23,11,42,2.90
2013,01,23,11,43,2.90
2013,01,23,11,44,2.90
2013,01,23,11,45,2.90
2013,01,23,11,46,2.90
2013,01,23,11,47,3.00
2013,01,23,11,48,3.00
2013,01,23,11,49,3.00
2013,01,23,11,50,3.00
2013,01,23,11,51,3.10
2013,01,23,11,52,3.10
2013,01,23,11,53,3.10
2013,01,23,11,54,3.10
2013,01,23,11,55,3.10
2013,01,23,11,56,3.20
2013,01,23,11,57,3.20
2013,01,23,11,58,3.20
2013,01,23,11,59,3.20
2013,01,23,12,00,3.20
2013,01,23,12,01,3.20
2013,01,23,12,02,3.20
2013,01,23,12,03,3.20
2013,01,23,12,04,3.20
2013,01,23,12,05,3.20
2013,01,23,12,06,3.20
2013,01,23,12,07,3.20
2013,01,23,12,08,3.20
2013,01,23,12,09,3.20
2013,01,23,12,10,3.20
2013,01,23,12,11,3.20
2013,01,23,12,12,3.20
2013,01,23,12,13,3.20
2013,01,23,12,14,3.20
2013,01,23,12,15,3.20
2013,01,23,12,16,3.20
2013,01,23,12,17,3.20
2013,01,23,12,18,3.20
2013,01,23,12,19,3.20
2013,01,23,12,20,3.20
2013,01,23,12,21,3.20
2013,01,23,12,22,3.20
2013,01,23,12,23,3.20
2013,01,23,12,24,3.20
2013,01,23,12,25,3.20
2013,01,23,12,26,3.20
2013,01,23,12,27,3.20
2013,01,23,12,28,3.20
2013,01,23,12,29,3.20
2013,01,23,12,30,3.20
2013,01,23,12,31,3.20
2013,01,23,12,32,3.20
2013,01,23,12,33,3.20
2013,01,23,12,34,3.30
2013,01,23,12,35,3.20
2013,01,23,12,36,3.20
2013,01,23,12,37,3.20
2013,01,23,12,38,3.20
2013,01,23,12,39,3.20
2013,01,23,12,40,3.20
2013,01,23,12,41,3.20
2013,01,23,12,42,3.20
2013,01,23,12,43,3.20
2013,01,23,12,44,3.20
2013,01,23,12,45,3.20
2013,01,23,12,46,3.20
2013,01,23,12,47,3.20
2013,01,23,12,48,3.20
2013,01,23,12,49,3.20
2013,01,23,12,50,3.20
2013,01,23,12,51,3.20
2013,01,23,12,52,3.20
2013,01,23,12,53,3.20
2013,01,23,12,54,3.20
2013,01,23,12,55,3.20
2013,01,23,12,56,3.20
2013,01,23,12,57,3.20
2013,01,23,12,58,3.20
2013,01,23,12,59,3.20
2013,01,23,13,00,3.20
2013,01,23,13,01,3.20
2013,01,23,13,02,3.20
2013,01,23,13,03,3.20
2013,01,23,13,04,3.10
2013,01,23,13,05,3.20
2013,01,23,13,06,3.10
2013,01,23,13,07,3.10
2013,01,23,13,08,3.10
2013,01,23,13,09,3.10
2013,01,23,13,10,3.10
2013,01,23,13,11,3.10
2013,01,23,13,12,3.10
2013,01,23,13,13,3.10
2013,01,23,13,14,3.10
2013,01,23,13,15,3.10
2013,01,23,13,16,3.10
2013,01,23,13,17,3.10
2013,01,23,13,18,3.20
2013,01,23,13,19,3.20
2013,01,23,13,20,3.20
2013,01,23,13,21,3.20
2013,01,23,13,22,3.20
2013,01,23,13,23,3.20
2013,01,23,13,24,3.20
2013,01,23,13,25,3.20
2013,01,23,13,26,3.20
2013,01,23,13,27,3.20
2013,01,23,13,28,3.20
2013,01,23,13,29,3.20
2013,01,23,13,30,3.20
2013,01,23,13,31,3.20
2013,01,23,13,32,3.20
2013,01,23,13,33,3.20
2013,01,23,13,34,3.20
2013,01,23,13,35,3.20
2013,01,23,13,36,3.20
2013,01,23,13,37,3.20
2013,01,23,13,38,3.20
2013,01,23,13,39,3.30
2013,01,23,13,40,3.30
2013,01,23,13,41,3.30
2013,01,23,13,42,3.30
2013,01,23,13,43,3.30
2013,01,23,13,44,3.30
2013,01,23,13,45,3.30
2013,01,23,13,46,3.30
2013,01,23,13,47,3.30
2013,01,23,13,48,3.30
2013,01,23,13,49,3.30
2013,01,23,13,50,3.30
2013,01,23,13,51,3.30
2013,01,23,13,52,3.30
2013,01,23,13,53,3.30
2013,01,23,13,54,3.30
2013,01,23,13,55,3.30
2013,01,23,13,56,3.30
2013,01,23,13,57,3.30
2013,01,23,13,58,3.30
2013,01,23,13,59,3.30
2013,01,23,14,00,3.30
2013,01,23,14,01,3.30
2013,01,23,14,02,3.30
2013,01,23,14,03,3.30
2013,01,23,14,04,3.30
2013,01,23,14,05,3.30
2013,01,23,14,06,3.30
2013,01,23,14,07,3.30
2013,01,23,14,08,3.30
2013,01,23,14,09,3.30
2013,01,23,14,10,3.30
2013,01,23,14,11,3.30
2013,01,23,14,12,3.30
2013,01,23,14,13,3.30
2013,01,23,14,14,3.30
2013,01,23,14,15,3.40
2013,01,23,14,16,3.40
2013,01,23,14,17,3.40
2013,01,23,14,18,3.40
2013,01,23,14,19,3.40
2013,01,23,14,20,3.40
2013,01,23,14,21,3.40
2013,01,23,14,22,3.40
2013,01,23,14,23,3.40
2013,01,23,14,24,3.40
2013,01,23,14,25,3.40
2013,01,23,14,26,3.40
2013,01,23,14,27,3.40
2013,01,23,14,28,3.40
2013,01,23,14,29,3.40
2013,01,23,14,30,3.50
2013,01,23,14,31,3.50
2013,01,23,14,32,3.50
2013,01,23,14,33,3.50
2013,01,23,14,34,3.50
2013,01,23,14,35,3.50
2013,01,23,14,36,3.50
2013,01,23,14,37,3.50
2013,01,23,14,38,3.50
2013,01,23,14,39,3.50
2013,01,23,14,40,3.60
2013,01,23,14,41,3.60
2013,01,23,14,42,3.60
2013,01,23,14,43,3.60
2013,01,23,14,44,3.60
2013,01,23,14,45,3.60
2013,01,23,14,46,3.60
2013,01,23,14,47,3.70
2013,01,23,14,48,3.70
2013,01,23,14,49,3.70
2013,01,23,14,50,3.70
2013,01,23,14,51,3.70
2013,01,23,14,52,3.70
2013,01,23,14,53,3.70
2013,01,23,14,54,3.70
2013,01,23,14,55,3.70
2013,01,23,14,56,3.70
2013,01,23,14,57,3.70
2013,01,23,14,58,3.70
2013,01,23,14,59,3.70
2013,01,23,15,00,3.70
2013,01,23,15,01,3.70
2013,01,23,15,02,3.70
2013,01,23,15,03,3.80
2013,01,23,15,04,3.80
2013,01,23,15,05,3.80
2013,01,23,15,06,3.80
2013,01,23,15,07,3.80
2013,01,23,15,08,3.80
2013,01,23,15,09,3.80
2013,01,23,15,10,3.80
2013,01,23,15,11,3.80
2013,01,23,15,12,3.80
2013,01,23,15,13,3.80
2013,01,23,15,14,3.90
2013,01,23,15,15,3.80
2013,01,23,15,16,3.80
2013,01,23,15,17,3.90
2013,01,23,15,18,3.90
2013,01,23,15,19,3.90
2013,01,23,15,20,3.90
2013,01,23,15,21,3.90
2013,01,23,15,22,3.90
2013,01,23,15,23,3.90
2013,01,23,15,24,3.90
2013,01,23,15,25,3.90
2013,01,23,15,26,4.00
2013,01,23,15,27,4.00
2013,01,23,15,28,4.00
2013,01,23,15,29,4.10
2013,01,23,15,30,4.10
2013,01,23,15,31,4.10
2013,01,23,15,32,4.20
2013,01,23,15,33,4.30
2013,01,23,15,34,4.40
2013,01,23,15,35,4.50
2013,01,23,15,36,4.50
2013,01,23,15,37,4.60
2013,01,23,15,38,4.70
2013,01,23,15,39,4.70
2013,01,23,15,40,4.70
2013,01,23,15,41,4.80
2013,01,23,15,42,4.80
2013,01,23,15,43,4.80
2013,01,23,15,44,4.80
2013,01,23,15,45,4.90
2013,01,23,15,46,4.90
2013,01,23,15,47,4.90
2013,01,23,15,48,4.90
2013,01,23,15,49,4.90
2013,01,23,15,50,4.90
2013,01,23,15,51,4.90
2013,01,23,15,52,4.90
2013,01,23,15,53,4.90
2013,01,23,15,54,4.90
2013,01,23,15,55,4.80
2013,01,23,15,56,4.80
2013,01,23,15,57,4.80
2013,01,23,15,58,4.80
2013,01,23,15,59,4.80
2013,01,23,16,00,4.80
2013,01,23,16,01,4.80
2013,01,23,16,02,4.80
2013,01,23,16,03,4.80
2013,01,23,16,04,4.80
2013,01,23,16,05,4.80
2013,01,23,16,06,4.70
2013,01,23,16,07,4.70
2013,01,23,16,08,4.70
2013,01,23,16,09,4.70
2013,01,23,16,10,4.70
2013,01,23,16,11,4.70
2013,01,23,16,12,4.70
2013,01,23,16,13,4.70
2013,01,23,16,14,4.70
2013,01,23,16,15,4.70
2013,01,23,16,16,4.70
2013,01,23,16,17,4.70
2013,01,23,16,18,4.60
2013,01,23,16,19,4.60
2013,01,23,16,20,4.60
2013,01,23,16,21,4.60
2013,01,23,16,22,4.60
2013,01,23,16,23,4.60
2013,01,23,16,24,4.60
2013,01,23,16,25,4.60
2013,01,23,16,26,4.60
2013,01,23,16,27,4.60
2013,01,23,16,28,4.60
2013,01,23,16,29,4.60
2013,01,23,16,30,4.60
2013,01,23,16,31,4.60
2013,01,23,16,32,4.60
2013,01,23,16,33,4.70
2013,01,23,16,34,4.70
2013,01,23,16,35,4.60
2013,01,23,16,36,4.60
2013,01,23,16,37,4.60
2013,01,23,16,38,4.60
2013,01,23,16,39,4.60
2013,01,23,16,40,4.60
2013,01,23,16,41,4.60
2013,01,23,16,42,4.60
2013,01,23,16,43,4.70
2013,01,23,16,44,4.60
2013,01,23,16,45,4.60
2013,01,23,16,46,4.60
2013,01,23,16,47,4.60
2013,01,23,16,48,4.60
2013,01,23,16,49,4.60
2013,01,23,16,50,4.60
2013,01,23,16,51,4.60
2013,01,23,16,52,4.60
2013,01,23,16,53,4.60
2013,01,23,16,54,4.60
2013,01,23,16,55,4.50
2013,01,23,16,56,4.50
2013,01,23,16,57,4.50
2013,01,23,16,58,4.50
2013,01,23,16,59,4.40
2013,01,23,17,00,4.40
2013,01,23,17,01,4.50
2013,01,23,17,02,4.50
2013,01,23,17,03,4.50
2013,01,23,17,04,4.50
2013,01,23,17,05,4.50
2013,01,23,17,06,4.50
2013,01,23,17,07,4.50
2013,01,23,17,08,4.50
2013,01,23,17,09,4.50
2013,01,23,17,10,4.50
2013,01,23,17,11,4.50
2013,01,23,17,12,4.50
2013,01,23,17,13,4.50
2013,01,23,17,14,4.60
2013,01,23,17,15,4.60
2013,01,23,17,16,4.60
2013,01,23,17,17,4.60
2013,01,23,17,18,4.60
2013,01,23,17,19,4.60
2013,01,23,17,20,4.70
2013,01,23,17,21,4.70
2013,01,23,17,22,4.70
2013,01,23,17,23,4.70
2013,01,23,17,24,4.70
2013,01,23,17,25,4.70
2013,01,23,17,26,4.70
2013,01,23,17,27,4.70
2013,01,23,17,28,4.70
2013,01,23,17,29,4.70
2013,01,23,17,30,4.70
2013,01,23,17,31,4.70
2013,01,23,17,32,4.70
2013,01,23,17,33,4.70
2013,01,23,17,34,4.70
2013,01,23,17,35,4.70
2013,01,23,17,36,4.70
2013,01,23,17,37,4.70
2013,01,23,17,38,4.70
2013,01,23,17,39,4.70
2013,01,23,17,40,4.70
2013,01,23,17,41,4.70
2013,01,23,17,42,4.70
2013,01,23,17,43,4.70
2013,01,23,17,44,4.70
2013,01,23,17,45,4.70
2013,01,23,17,46,4.70
2013,01,23,17,47,4.70
2013,01,23,17,48,4.70
2013,01,23,17,49,4.70
2013,01,23,17,50,4.70
2013,01,23,17,51,4.70
2013,01,23,17,52,4.80
2013,01,23,17,53,4.80
2013,01,23,17,54,4.80
2013,01,23,17,55,4.90
2013,01,23,17,56,4.90
2013,01,23,17,57,5.00
2013,01,23,17,58,5.00
2013,01,23,17,59,5.00
2013,01,23,18,00,5.10
2013,01,23,18,01,5.10
2013,01,23,18,02,5.10
2013,01,23,18,03,5.10
2013,01,23,18,04,5.10
2013,01,23,18,05,5.10
2013,01,23,18,06,5.10
2013,01,23,18,07,5.10
2013,01,23,18,08,5.10
2013,01,23,18,09,5.10
2013,01,23,18,10,5.10
2013,01,23,18,11,5.10
2013,01,23,18,12,5.10
2013,01,23,18,13,5.00
2013,01,23,18,14,5.00
2013,01,23,18,15,5.00
2013,01,23,18,16,4.90
2013,01,23,18,17,4.90
2013,01,23,18,18,4.90
2013,01,23,18,19,4.90
2013,01,23,18,20,4.80
2013,01,23,18,21,4.80
2013,01,23,18,22,4.80
2013,01,23,18,23,4.80
2013,01,23,18,24,4.80
2013,01,23,18,25,4.80
2013,01,23,18,26,4.80
2013,01,23,18,27,4.80
2013,01,23,18,28,4.80
2013,01,23,18,29,4.70
2013,01,23,18,30,4.70
2013,01,23,18,31,4.70
2013,01,23,18,32,4.70
2013,01,23,18,33,4.70
2013,01,23,18,34,4.70
2013,01,23,18,35,4.70
2013,01,23,18,36,4.70
2013,01,23,18,37,4.80
2013,01,23,18,38,4.80
2013,01,23,18,39,4.80
2013,01,23,18,40,4.80
2013,01,23,18,41,4.80
2013,01,23,18,42,4.80
2013,01,23,18,43,4.80
2013,01,23,18,44,4.80
2013,01,23,18,45,4.80
2013,01,23,18,46,4.80
2013,01,23,18,47,4.80
2013,01,23,18,48,4.80
2013,01,23,18,49,4.80
2013,01,23,18,50,4.80
2013,01,23,18,51,4.80
2013,01,23,18,52,4.80
2013,01,23,18,53,4.80
2013,01,23,18,54,4.70
2013,01,23,18,55,4.70
2013,01,23,18,56,4.70
2013,01,23,18,57,4.70
2013,01,23,18,58,4.60
2013,01,23,18,59,4.60
2013,01,23,19,00,4.60
2013,01,23,19,01,4.60
2013,01,23,19,02,4.60
2013,01,23,19,03,4.50
2013,01,23,19,04,4.50
2013,01,23,19,05,4.50
2013,01,23,19,06,4.40
2013,01,23,19,07,4.40
2013,01,23,19,08,4.40
2013,01,23,19,09,4.40
2013,01,23,19,10,4.40
2013,01,23,19,11,4.40
2013,01,23,19,12,4.40
2013,01,23,19,13,4.40
2013,01,23,19,14,4.40
2013,01,23,19,15,4.30
2013,01,23,19,16,4.30
2013,01,23,19,17,4.30
2013,01,23,19,18,4.30
2013,01,23,19,19,4.20
2013,01,23,19,20,4.20
2013,01,23,19,21,4.20
2013,01,23,19,22,4.20
2013,01,23,19,23,4.20
2013,01,23,19,24,4.20
2013,01,23,19,25,4.10
2013,01,23,19,26,4.10
2013,01,23,19,27,4.10
2013,01,23,19,28,4.10
2013,01,23,19,29,4.10
2013,01,23,19,30,4.10
2013,01,23,19,31,4.10
2013,01,23,19,32,4.10
2013,01,23,19,33,4.10
2013,01,23,19,34,4.10
2013,01,23,19,35,4.10
2013,01,23,19,36,4.10
2013,01,23,19,37,4.10
2013,01,23,19,38,4.10
2013,01,23,19,39,4.10
2013,01,23,19,40,4.10
2013,01,23,19,41,4.20
2013,01,23,19,42,4.20
2013,01,23,19,43,4.20
2013,01,23,19,44,4.20
2013,01,23,19,45,4.20
2013,01,23,19,46,4.20
2013,01,23,19,47,4.20
2013,01,23,19,48,4.20
2013,01,23,19,49,4.10
2013,01,23,19,50,4.10
2013,01,23,19,51,4.10
2013,01,23,19,52,4.10
2013,01,23,19,53,4.10
2013,01,23,19,54,4.00
2013,01,23,19,55,4.00
2013,01,23,19,56,4.00
2013,01,23,19,57,3.90
2013,01,23,19,58,3.90
2013,01,23,19,59,3.90
2013,01,23,20,00,3.80
2013,01,23,20,01,3.80
2013,01,23,20,02,3.80
2013,01,23,20,03,3.80
2013,01,23,20,04,3.80
2013,01,23,20,05,3.70
2013,01,23,20,06,3.70
2013,01,23,20,07,3.60
2013,01,23,20,08,3.60
2013,01,23,20,09,3.60
2013,01,23,20,10,3.60
2013,01,23,20,11,3.50
2013,01,23,20,12,3.50
2013,01,23,20,13,3.50
2013,01,23,20,14,3.50
2013,01,23,20,15,3.40
2013,01,23,20,16,3.40
2013,01,23,20,17,3.30
2013,01,23,20,18,3.30
2013,01,23,20,19,3.30
2013,01,23,20,20,3.30
2013,01,23,20,21,3.20
2013,01,23,20,22,3.20
2013,01,23,20,23,3.20
2013,01,23,20,24,3.10
2013,01,23,20,25,3.10
2013,01,23,20,26,3.20
2013,01,23,20,27,3.20
2013,01,23,20,28,3.20
2013,01,23,20,29,3.10
2013,01,23,20,30,3.10
2013,01,23,20,31,3.10
2013,01,23,20,32,3.00
2013,01,23,20,33,3.00
2013,01,23,20,34,3.00
2013,01,23,20,35,3.10
2013,01,23,20,36,3.10
2013,01,23,20,37,3.10